• In Deutschland
  • Länderverzeichnis
  • Für 7 Tage
  • Wassertemperatur
  • Satellitenkarten
  • Wetterkarte
  • Widgets
  • user-avatar
    Anmelden

    Stündliche Wetter Lindau

    Heute, 21 Oktober, Samstag

    Zeit Temperatur Niederschläge Wind Luftdruck Luftfeuchtigkeit
    00:00 +14°C° 0 mm 2 m/S 728 mmHg 76%
    01:00 +14°C° 0 mm 2 m/S 728 mmHg 74%
    02:00 +13°C° 0 mm 2 m/S 728 mmHg 73%
    03:00 +13°C° 0 mm 2 m/S 728 mmHg 72%
    04:00 +13°C° 0 mm 2 m/S 728 mmHg 71%
    05:00 +13°C° 0 mm 2 m/S 728 mmHg 71%
    06:00 +13°C° 0 mm 2 m/S 728 mmHg 70%
    07:00 +12°C° 0 mm 2 m/S 728 mmHg 70%
    08:00 +14°C° 0 mm 2 m/S 728 mmHg 66%
    09:00 +17°C° 0 mm 2 m/S 728 mmHg 62%
    10:00 +19°C° 0 mm 2 m/S 728 mmHg 57%
    11:00 +20°C° 0 mm 2 m/S 728 mmHg 56%
    12:00 +21°C° 0 mm 2 m/S 728 mmHg 54%
    13:00 +21°C° 0 mm 2 m/S 727 mmHg 52%
    14:00 +21°C° 0 mm 2 m/S 727 mmHg 57%
    15:00 +20°C° 0 mm 2 m/S 727 mmHg 62%
    16:00 +21°C° 0 mm 1 m/S 727 mmHg 67%
    17:00 +19°C° 0 mm 1 m/S 727 mmHg 72%
    18:00 +16°C° 0 mm 1 m/S 727 mmHg 77%
    19:00 +14°C° 0 mm 1 m/S 727 mmHg 82%
    20:00 +14°C° 0,3 mm 2 m/S 728 mmHg 85%
    21:00 +13°C° 0,3 mm 3 m/S 728 mmHg 88%
    22:00 +12°C° 0,3 mm 4 m/S 728 mmHg 91%
    23:00 +12°C° 1,1 mm 4 m/S 728 mmHg 92%

    Morgen, 22 Oktober, Sonntag

    Zeit Temperatur Niederschläge Wind Luftdruck Luftfeuchtigkeit
    00:00 +11°C° 1,1 mm 3 m/S 729 mmHg 94%
    01:00 +10°C° 1,1 mm 3 m/S 729 mmHg 95%
    02:00 +10°C° 0,7 mm 3 m/S 729 mmHg 95%
    03:00 +10°C° 0,7 mm 3 m/S 729 mmHg 95%
    04:00 +10°C° 0,7 mm 3 m/S 728 mmHg 95%
    05:00 +9°C° 0,7 mm 3 m/S 728 mmHg 95%
    06:00 +9°C° 0,7 mm 3 m/S 728 mmHg 95%
    07:00 +9°C° 0,7 mm 2 m/S 728 mmHg 95%
    08:00 +9°C° 0,6 mm 3 m/S 728 mmHg 93%
    09:00 +9°C° 0,6 mm 3 m/S 728 mmHg 91%
    10:00 +9°C° 0,6 mm 3 m/S 729 mmHg 90%
    11:00 +10°C° 0,4 mm 3 m/S 728 mmHg 88%
    12:00 +10°C° 0,4 mm 3 m/S 728 mmHg 85%
    13:00 +10°C° 0,4 mm 3 m/S 728 mmHg 83%
    14:00 +10°C° 0,4 mm 3 m/S 728 mmHg 84%
    15:00 +10°C° 0,4 mm 3 m/S 727 mmHg 85%
    16:00 +10°C° 0,4 mm 3 m/S 727 mmHg 85%
    17:00 +9°C° 0,3 mm 3 m/S 728 mmHg 88%
    18:00 +8°C° 0,3 mm 3 m/S 728 mmHg 90%
    19:00 +7°C° 0,3 mm 3 m/S 729 mmHg 93%
    20:00 +7°C° 0,5 mm 3 m/S 729 mmHg 93%
    21:00 +7°C° 0,5 mm 3 m/S 729 mmHg 94%
    22:00 +6°C° 0,5 mm 4 m/S 730 mmHg 94%
    23:00 +7°C° 0,4 mm 3 m/S 730 mmHg 95%

    übermorgen, 23 Oktober, Montag

    Zeit Temperatur Niederschläge Wind Luftdruck Luftfeuchtigkeit
    00:00 +7°C° 0,4 mm 3 m/S 730 mmHg 95%
    01:00 +7°C° 0,4 mm 3 m/S 730 mmHg 95%
    02:00 +7°C° 0,3 mm 3 m/S 730 mmHg 95%
    03:00 +5°C° 0,3 mm 3 m/S 730 mmHg 95%
    04:00 +5°C° 0,3 mm 3 m/S 730 mmHg 95%
    05:00 +5°C° 0,5 mm 3 m/S 730 mmHg 95%
    06:00 +5°C° 0,5 mm 3 m/S 730 mmHg 95%
    07:00 +5°C° 0,5 mm 3 m/S 730 mmHg 95%
    08:00 +7°C° 0,7 mm 3 m/S 730 mmHg 94%
    09:00 +7°C° 0,7 mm 3 m/S 730 mmHg 93%
    10:00 +7°C° 0,7 mm 4 m/S 730 mmHg 92%
    11:00 +8°C° 0,7 mm 3 m/S 730 mmHg 93%
    12:00 +8°C° 0,7 mm 3 m/S 730 mmHg 93%
    13:00 +8°C° 0,7 mm 3 m/S 730 mmHg 94%
    14:00 +8°C° 0,8 mm 3 m/S 730 mmHg 94%
    15:00 +8°C° 0,8 mm 3 m/S 730 mmHg 95%
    16:00 +8°C° 0,8 mm 3 m/S 731 mmHg 96%
    17:00 +8°C° 0,8 mm 3 m/S 731 mmHg 96%
    18:00 +8°C° 0,8 mm 3 m/S 731 mmHg 97%
    19:00 +8°C° 0,8 mm 2 m/S 732 mmHg 97%
    20:00 +8°C° 0,7 mm 2 m/S 732 mmHg 97%
    21:00 +8°C° 0,7 mm 2 m/S 732 mmHg 97%
    22:00 +8°C° 0,7 mm 2 m/S 732 mmHg 97%
    23:00 +8°C° 0,5 mm 2 m/S 732 mmHg 97%

    24 Oktober, Dienstag

    Zeit Temperatur Niederschläge Wind Luftdruck Luftfeuchtigkeit
    00:00 +8°C° 0,5 mm 2 m/S 732 mmHg 97%
    01:00 +8°C° 0,5 mm 2 m/S 732 mmHg 97%
    02:00 +8°C° 0,5 mm 2 m/S 732 mmHg 97%
    03:00 +8°C° 0,5 mm 2 m/S 732 mmHg 97%
    04:00 +8°C° 0,5 mm 2 m/S 732 mmHg 96%
    05:00 +8°C° 0,4 mm 2 m/S 732 mmHg 96%
    06:00 +8°C° 0,4 mm 2 m/S 733 mmHg 96%
    07:00 +8°C° 0,4 mm 2 m/S 733 mmHg 96%
    08:00 +9°C° 0,3 mm 2 m/S 733 mmHg 95%
    09:00 +9°C° 0,3 mm 2 m/S 733 mmHg 95%
    10:00 +10°C° 0,3 mm 2 m/S 733 mmHg 94%
    11:00 +10°C° 0 mm 2 m/S 733 mmHg 94%
    12:00 +12°C° 0 mm 2 m/S 732 mmHg 93%
    13:00 +13°C° 0 mm 1 m/S 732 mmHg 92%
    14:00 +13°C° 0 mm 1 m/S 732 mmHg 92%
    15:00 +13°C° 0 mm 1 m/S 732 mmHg 92%
    16:00 +14°C° 0 mm 1 m/S 733 mmHg 92%
    17:00 +13°C° 0 mm 1 m/S 733 mmHg 93%
    18:00 +12°C° 0 mm 1 m/S 733 mmHg 95%
    19:00 +11°C° 0 mm 1 m/S 734 mmHg 96%
    20:00 +11°C° 0 mm 1 m/S 734 mmHg 96%
    21:00 +10°C° 0 mm 1 m/S 734 mmHg 96%
    22:00 +9°C° 0 mm 2 m/S 734 mmHg 96%
    23:00 +8°C° 0 mm 2 m/S 734 mmHg 95%

    25 Oktober, Mittwoch

    Zeit Temperatur Niederschläge Wind Luftdruck Luftfeuchtigkeit
    00:00 +9°C° 0 mm 1 m/S 734 mmHg 95%
    01:00 +9°C° 0 mm 1 m/S 734 mmHg 94%
    02:00 +9°C° 0 mm 1 m/S 734 mmHg 93%
    03:00 +9°C° 0 mm 1 m/S 734 mmHg 91%
    04:00 +9°C° 0 mm 1 m/S 733 mmHg 90%
    05:00 +9°C° 0 mm 1 m/S 733 mmHg 90%
    06:00 +9°C° 0 mm 1 m/S 734 mmHg 89%
    07:00 +9°C° 0 mm 1 m/S 734 mmHg 88%
    08:00 +11°C° 0 mm 1 m/S 734 mmHg 86%
    09:00 +13°C° 0 mm 1 m/S 734 mmHg 84%
    10:00 +14°C° 0 mm 1 m/S 733 mmHg 82%
    11:00 +16°C° 0 mm 1 m/S 733 mmHg 79%
    12:00 +18°C° 0 mm 1 m/S 733 mmHg 76%
    13:00 +19°C° 0 mm 1 m/S 733 mmHg 73%
    14:00 +19°C° 0 mm 1 m/S 733 mmHg 76%
    15:00 +18°C° 0 mm 1 m/S 733 mmHg 80%
    16:00 +18°C° 0 mm 1 m/S 733 mmHg 83%
    17:00 +15°C° 0 mm 1 m/S 733 mmHg 85%
    18:00 +14°C° 0 mm 1 m/S 733 mmHg 87%
    19:00 +12°C° 0 mm 1 m/S 733 mmHg 89%
    20:00 +12°C° 0 mm 1 m/S 733 mmHg 88%
    21:00 +11°C° 0 mm 1 m/S 734 mmHg 86%
    22:00 +11°C° 0 mm 1 m/S 734 mmHg 85%
    23:00 +11°C° 0 mm 1 m/S 734 mmHg 84%

    26 Oktober, Donnerstag

    Zeit Temperatur Niederschläge Wind Luftdruck Luftfeuchtigkeit
    00:00 +11°C° 0 mm 1 m/S 734 mmHg 83%
    01:00 +11°C° 0 mm 1 m/S 734 mmHg 81%
    02:00 +11°C° 0 mm 1 m/S 733 mmHg 81%
    03:00 +10°C° 0 mm 1 m/S 733 mmHg 80%
    04:00 +10°C° 0 mm 1 m/S 733 mmHg 79%
    05:00 +10°C° 0 mm 1 m/S 733 mmHg 79%
    06:00 +10°C° 0 mm 1 m/S 733 mmHg 78%
    07:00 +10°C° 0 mm 1 m/S 734 mmHg 78%
    08:00 +12°C° 0 mm 1 m/S 734 mmHg 76%
    09:00 +14°C° 0 mm 1 m/S 734 mmHg 75%
    10:00 +18°C° 0 mm 1 m/S 734 mmHg 73%
    11:00 +17°C° 0 mm 0 m/S 734 mmHg 70%
    12:00 +18°C° 0 mm 0 m/S 734 mmHg 67%
    13:00 +19°C° 0 mm 0 m/S 733 mmHg 65%
    14:00 +19°C° 0 mm 0 m/S 733 mmHg 69%
    15:00 +18°C° 0 mm 0 m/S 733 mmHg 74%
    16:00 +19°C° 0 mm 1 m/S 733 mmHg 78%
    17:00 +18°C° 0 mm 1 m/S 733 mmHg 81%
    18:00 +15°C° 0 mm 1 m/S 733 mmHg 83%
    19:00 +13°C° 0 mm 1 m/S 734 mmHg 85%
    20:00 +13°C° 0 mm 1 m/S 734 mmHg 84%
    21:00 +13°C° 0 mm 1 m/S 734 mmHg 83%
    22:00 +12°C° 0 mm 1 m/S 734 mmHg 83%
    23:00 +12°C° 0 mm 1 m/S 734 mmHg 82%
    Mehr zeigen